weather.gov     
National Weather Service

Terminal Aerodrome Forecast
NWS Homepage
This page is being discontinued on March 12, 2014.
The same data is available at this site. Please update your bookmarks.
Thank you, and we apologize for the inconvenience.
Please send an email to SR-SRH.Webmaster@noaa.gov with any concerns.


Current Version
Previous Version:    01  02  03  04  05  06  07  08  09  10  11  12  13  14  15  16  17  18  19  20  21  22  23  24  25  26  27  
[Printable]
409
FTUS44 KTSA 291600 AAA
TAFRVS
TAF AMD
KRVS 291611Z 2916/3012 00000KT P6SM SCT050 BKN110
     FM292000 19008KT P6SM VCTS SCT050CB BKN250
      TEMPO 2920/2924 5SM -TSRA BKN050CB
     FM300000 17005KT P6SM VCTS SCT050CB BKN250
     FM300600 17005KT P6SM SCT250=


U.S. Dept. of Commerce
NOAA National Weather Service
1325 East West Highway
Silver Spring, MD 20910
E-mail: w-nws.webmaster@noaa.gov
Page last modified: May 16, 2007
NATIONAL WEATHER SERVICE: for Safety, for Work, for Fun - FOR LIFE